iso_date,epoch_date,Year,Hour,Min,DOY,POS_DOY,Lat,Lon,BP,Ts,Ta,has_bp,has_ts,has_ta,BuoyID,Buoy_Type,Buoy_Owner,Logistics,Hemisphere
2019-03-08T06:00:00Z,1552024800,2019,6,0,67.25,67.25,63.405,-21.757,994.0,7.05,-999.0,yes,yes,no,300234065716130,BD2GHI,AOML,BJARNI_SAEMUNDSSO,North
2019-03-08T07:00:28Z,1552028429,2019,7,0,67.292,67.292,63.408,-21.769,992.8,7.05,-999.0,yes,yes,no,300234065716130,BD2GHI,AOML,BJARNI_SAEMUNDSSO,North
2019-03-08T07:59:31Z,1552031971,2019,8,0,67.333,67.333,63.409,-21.778,991.7,7.05,-999.0,yes,yes,no,300234065716130,BD2GHI,AOML,BJARNI_SAEMUNDSSO,North
2019-03-08T09:00:00Z,1552035600,2019,9,0,67.375,67.375,63.408,-21.788,990.8,7.05,-999.0,yes,yes,no,300234065716130,BD2GHI,AOML,BJARNI_SAEMUNDSSO,North
2019-03-08T10:00:28Z,1552039229,2019,10,0,67.417,67.417,63.408,-21.797,989.6,7.04,-999.0,yes,yes,no,300234065716130,BD2GHI,AOML,BJARNI_SAEMUNDSSO,North
2019-03-08T11:03:50Z,1552043030,2019,11,4,67.461,67.461,63.403,-21.805,988.7,7.06,-999.0,yes,yes,no,300234065716130,BD2GHI,AOML,BJARNI_SAEMUNDSSO,North
2019-03-08T12:04:19Z,1552046659,2019,12,4,67.503,67.503,63.403,-21.815,988.1,7.05,-999.0,yes,yes,no,300234065716130,BD2GHI,AOML,BJARNI_SAEMUNDSSO,North
2019-03-08T13:00:28Z,1552050029,2019,13,0,67.542,67.542,63.404,-21.828,987.7,7.04,-999.0,yes,yes,no,300234065716130,BD2GHI,AOML,BJARNI_SAEMUNDSSO,North
2019-03-08T13:59:31Z,1552053571,2019,14,0,67.583,67.583,63.405,-21.846,987.1,7.02,-999.0,yes,yes,no,300234065716130,BD2GHI,AOML,BJARNI_SAEMUNDSSO,North
2019-03-08T15:00:00Z,1552057200,2019,15,0,67.625,67.625,63.408,-21.87,986.7,7.0,-999.0,yes,yes,no,300234065716130,BD2GHI,AOML,BJARNI_SAEMUNDSSO,North
2019-03-08T16:00:28Z,1552060829,2019,16,0,67.667,67.667,63.412,-21.893,986.1,6.99,-999.0,yes,yes,no,300234065716130,BD2GHI,AOML,BJARNI_SAEMUNDSSO,North
2019-03-08T16:59:31Z,1552064371,2019,17,0,67.708,67.708,63.419,-21.923,986.0,6.97,-999.0,yes,yes,no,300234065716130,BD2GHI,AOML,BJARNI_SAEMUNDSSO,North
2019-03-08T18:00:00Z,1552068000,2019,18,0,67.75,67.75,63.425,-21.947,985.8,7.01,-999.0,yes,yes,no,300234065716130,BD2GHI,AOML,BJARNI_SAEMUNDSSO,North
2019-03-08T19:00:28Z,1552071629,2019,19,0,67.792,67.792,63.43,-21.965,985.7,6.99,-999.0,yes,yes,no,300234065716130,BD2GHI,AOML,BJARNI_SAEMUNDSSO,North
2019-03-08T19:59:31Z,1552075171,2019,20,0,67.833,67.833,63.431,-21.983,985.9,7.04,-999.0,yes,yes,no,300234065716130,BD2GHI,AOML,BJARNI_SAEMUNDSSO,North
2019-03-08T21:00:00Z,1552078800,2019,21,0,67.875,67.875,63.433,-22.0,985.8,7.07,-999.0,yes,yes,no,300234065716130,BD2GHI,AOML,BJARNI_SAEMUNDSSO,North
2019-03-08T22:03:21Z,1552082602,2019,22,4,67.919,67.919,63.454,-22.014,986.2,7.11,-999.0,yes,yes,no,300234065716130,BD2GHI,AOML,BJARNI_SAEMUNDSSO,North
2019-03-08T23:03:50Z,1552086230,2019,23,4,67.961,67.961,63.434,-22.023,986.5,7.11,-999.0,yes,yes,no,300234065716130,BD2GHI,AOML,BJARNI_SAEMUNDSSO,North
2019-03-09T00:00:00Z,1552089600,2019,0,0,68.0,68.0,63.434,-22.033,987.3,7.11,-999.0,yes,yes,no,300234065716130,BD2GHI,AOML,BJARNI_SAEMUNDSSO,North
2019-03-09T01:00:28Z,1552093229,2019,1,0,68.042,68.042,63.437,-22.048,988.0,7.12,-999.0,yes,yes,no,300234065716130,BD2GHI,AOML,BJARNI_SAEMUNDSSO,North
2019-03-09T02:00:57Z,1552096858,2019,2,1,68.084,68.084,63.435,-22.062,987.8,7.12,-999.0,yes,yes,no,300234065716130,BD2GHI,AOML,BJARNI_SAEMUNDSSO,North
2019-03-09T03:00:00Z,1552100400,2019,3,0,68.125,68.125,63.438,-22.08,988.7,7.12,-999.0,yes,yes,no,300234065716130,BD2GHI,AOML,BJARNI_SAEMUNDSSO,North
2019-03-09T04:00:28Z,1552104029,2019,4,0,68.167,68.167,63.442,-22.102,988.1,7.11,-999.0,yes,yes,no,300234065716130,BD2GHI,AOML,BJARNI_SAEMUNDSSO,North
2019-03-09T04:59:31Z,1552107571,2019,5,0,68.208,68.208,63.448,-22.126,989.1,7.14,-999.0,yes,yes,no,300234065716130,BD2GHI,AOML,BJARNI_SAEMUNDSSO,North
2019-03-09T06:00:00Z,1552111200,2019,6,0,68.25,68.25,63.452,-22.146,989.1,7.18,-999.0,yes,yes,no,300234065716130,BD2GHI,AOML,BJARNI_SAEMUNDSSO,North
2019-03-09T07:00:28Z,1552114829,2019,7,0,68.292,68.292,63.457,-22.158,989.9,7.16,-999.0,yes,yes,no,300234065716130,BD2GHI,AOML,BJARNI_SAEMUNDSSO,North
2019-03-09T08:00:57Z,1552118458,2019,8,1,68.334,68.334,63.464,-22.163,990.1,7.17,-999.0,yes,yes,no,300234065716130,BD2GHI,AOML,BJARNI_SAEMUNDSSO,North
2019-03-09T09:02:52Z,1552122173,2019,9,3,68.377,68.377,63.462,-22.182,990.6,7.18,-999.0,yes,yes,no,300234065716130,BD2GHI,AOML,BJARNI_SAEMUNDSSO,North
2019-03-09T10:00:28Z,1552125629,2019,10,1,68.417,68.417,63.464,-22.19,992.2,7.06,-999.0,yes,yes,no,300234065716130,BD2GHI,AOML,BJARNI_SAEMUNDSSO,North
2019-03-09T10:59:31Z,1552129171,2019,11,0,68.458,68.458,63.464,-22.188,992.9,6.98,-999.0,yes,yes,no,300234065716130,BD2GHI,AOML,BJARNI_SAEMUNDSSO,North
2019-03-09T12:00:00Z,1552132800,2019,12,0,68.5,68.5,63.462,-22.181,993.4,6.61,-999.0,yes,yes,no,300234065716130,BD2GHI,AOML,BJARNI_SAEMUNDSSO,North
2019-03-09T13:00:28Z,1552136429,2019,13,1,68.542,68.542,63.461,-22.172,994.0,6.6,-999.0,yes,yes,no,300234065716130,BD2GHI,AOML,BJARNI_SAEMUNDSSO,North
2019-03-09T13:59:31Z,1552139971,2019,14,0,68.583,68.583,63.462,-22.168,994.3,6.0,-999.0,yes,yes,no,300234065716130,BD2GHI,AOML,BJARNI_SAEMUNDSSO,North
2019-03-09T15:00:00Z,1552143600,2019,15,0,68.625,68.625,63.461,-22.167,993.8,6.5,-999.0,yes,yes,no,300234065716130,BD2GHI,AOML,BJARNI_SAEMUNDSSO,North
2019-03-09T16:00:28Z,1552147229,2019,16,0,68.667,68.667,63.463,-22.166,993.3,6.75,-999.0,yes,yes,no,300234065716130,BD2GHI,AOML,BJARNI_SAEMUNDSSO,North
2019-03-09T16:59:31Z,1552150771,2019,17,0,68.708,68.708,63.468,-22.169,993.0,6.84,-999.0,yes,yes,no,300234065716130,BD2GHI,AOML,BJARNI_SAEMUNDSSO,North
2019-03-09T18:00:00Z,1552154400,2019,18,0,68.75,68.75,63.47,-22.175,993.1,6.9,-999.0,yes,yes,no,300234065716130,BD2GHI,AOML,BJARNI_SAEMUNDSSO,North
2019-03-09T19:00:28Z,1552158029,2019,19,0,68.792,68.792,63.474,-22.18,993.3,6.98,-999.0,yes,yes,no,300234065716130,BD2GHI,AOML,BJARNI_SAEMUNDSSO,North
2019-03-09T19:59:31Z,1552161571,2019,20,0,68.833,68.833,63.475,-22.185,993.6,6.99,-999.0,yes,yes,no,300234065716130,BD2GHI,AOML,BJARNI_SAEMUNDSSO,North
2019-03-09T21:00:00Z,1552165200,2019,21,0,68.875,68.875,63.476,-22.187,993.7,7.02,-999.0,yes,yes,no,300234065716130,BD2GHI,AOML,BJARNI_SAEMUNDSSO,North
2019-03-09T22:00:28Z,1552168829,2019,22,0,68.917,68.917,63.478,-22.181,993.5,7.03,-999.0,yes,yes,no,300234065716130,BD2GHI,AOML,BJARNI_SAEMUNDSSO,North
2019-03-09T22:59:31Z,1552172371,2019,23,0,68.958,68.958,63.48,-22.173,993.5,7.07,-999.0,yes,yes,no,300234065716130,BD2GHI,AOML,BJARNI_SAEMUNDSSO,North
2019-03-10T00:00:00Z,1552176000,2019,0,0,69.0,69.0,63.48,-22.161,993.3,7.07,-999.0,yes,yes,no,300234065716130,BD2GHI,AOML,BJARNI_SAEMUNDSSO,North
2019-03-10T01:00:28Z,1552179629,2019,1,0,69.042,69.042,63.482,-22.147,993.3,7.08,-999.0,yes,yes,no,300234065716130,BD2GHI,AOML,BJARNI_SAEMUNDSSO,North
2019-03-10T02:00:57Z,1552183258,2019,2,1,69.084,69.084,63.485,-22.134,993.4,7.07,-999.0,yes,yes,no,300234065716130,BD2GHI,AOML,BJARNI_SAEMUNDSSO,North
2019-03-10T03:00:00Z,1552186800,2019,3,0,69.125,69.125,63.489,-22.123,993.4,7.07,-999.0,yes,yes,no,300234065716130,BD2GHI,AOML,BJARNI_SAEMUNDSSO,North
2019-03-10T04:00:28Z,1552190429,2019,4,0,69.167,69.167,63.494,-22.115,993.3,7.07,-999.0,yes,yes,no,300234065716130,BD2GHI,AOML,BJARNI_SAEMUNDSSO,North
2019-03-10T04:59:31Z,1552193971,2019,5,0,69.208,69.208,63.501,-22.113,993.4,7.08,-999.0,yes,yes,no,300234065716130,BD2GHI,AOML,BJARNI_SAEMUNDSSO,North
2019-03-10T06:01:26Z,1552197686,2019,6,1,69.251,69.251,63.506,-22.112,993.7,7.07,-999.0,yes,yes,no,300234065716130,BD2GHI,AOML,BJARNI_SAEMUNDSSO,North
2019-03-10T07:00:28Z,1552201229,2019,7,0,69.292,69.292,63.516,-22.105,993.9,7.09,-999.0,yes,yes,no,300234065716130,BD2GHI,AOML,BJARNI_SAEMUNDSSO,North
2019-03-10T08:00:57Z,1552204858,2019,8,1,69.334,69.334,63.521,-22.103,994.3,7.07,-999.0,yes,yes,no,300234065716130,BD2GHI,AOML,BJARNI_SAEMUNDSSO,North
2019-03-10T09:00:00Z,1552208400,2019,9,0,69.375,69.375,63.529,-22.101,994.5,7.08,-999.0,yes,yes,no,300234065716130,BD2GHI,AOML,BJARNI_SAEMUNDSSO,North
2019-03-10T10:00:28Z,1552212029,2019,10,0,69.417,69.417,63.535,-22.093,994.7,7.1,-999.0,yes,yes,no,300234065716130,BD2GHI,AOML,BJARNI_SAEMUNDSSO,North
2019-03-10T10:59:31Z,1552215571,2019,11,0,69.458,69.458,63.538,-22.082,995.3,7.12,-999.0,yes,yes,no,300234065716130,BD2GHI,AOML,BJARNI_SAEMUNDSSO,North
2019-03-10T12:00:00Z,1552219200,2019,12,0,69.5,69.5,63.541,-22.068,995.9,7.11,-999.0,yes,yes,no,300234065716130,BD2GHI,AOML,BJARNI_SAEMUNDSSO,North
2019-03-10T13:00:28Z,1552222829,2019,13,1,69.542,69.542,63.543,-22.056,996.4,7.14,-999.0,yes,yes,no,300234065716130,BD2GHI,AOML,BJARNI_SAEMUNDSSO,North
2019-03-10T14:00:57Z,1552226458,2019,14,1,69.584,69.584,63.546,-22.048,996.5,7.15,-999.0,yes,yes,no,300234065716130,BD2GHI,AOML,BJARNI_SAEMUNDSSO,North
2019-03-10T15:00:00Z,1552230000,2019,15,0,69.625,69.625,63.546,-22.032,996.6,7.16,-999.0,yes,yes,no,300234065716130,BD2GHI,AOML,BJARNI_SAEMUNDSSO,North
2019-03-10T16:00:28Z,1552233629,2019,16,0,69.667,69.667,63.548,-22.026,996.5,7.17,-999.0,yes,yes,no,300234065716130,BD2GHI,AOML,BJARNI_SAEMUNDSSO,North
2019-03-10T16:59:31Z,1552237171,2019,17,0,69.708,69.708,63.553,-22.025,996.6,7.16,-999.0,yes,yes,no,300234065716130,BD2GHI,AOML,BJARNI_SAEMUNDSSO,North
2019-03-10T18:00:00Z,1552240800,2019,18,0,69.75,69.75,63.556,-22.026,996.8,7.12,-999.0,yes,yes,no,300234065716130,BD2GHI,AOML,BJARNI_SAEMUNDSSO,North
2019-03-10T19:00:28Z,1552244429,2019,19,0,69.792,69.792,63.56,-22.028,997.3,7.13,-999.0,yes,yes,no,300234065716130,BD2GHI,AOML,BJARNI_SAEMUNDSSO,North
2019-03-10T19:59:31Z,1552247971,2019,20,0,69.833,69.833,63.562,-22.029,997.6,7.12,-999.0,yes,yes,no,300234065716130,BD2GHI,AOML,BJARNI_SAEMUNDSSO,North
2019-03-10T21:00:00Z,1552251600,2019,21,0,69.875,69.875,63.564,-22.03,997.8,7.13,-999.0,yes,yes,no,300234065716130,BD2GHI,AOML,BJARNI_SAEMUNDSSO,North
2019-03-10T22:00:28Z,1552255229,2019,22,0,69.917,69.917,63.564,-22.028,997.7,7.08,-999.0,yes,yes,no,300234065716130,BD2GHI,AOML,BJARNI_SAEMUNDSSO,North
2019-03-10T22:59:31Z,1552258771,2019,23,0,69.958,69.958,63.563,-22.023,998.1,7.08,-999.0,yes,yes,no,300234065716130,BD2GHI,AOML,BJARNI_SAEMUNDSSO,North
2019-03-11T00:00:00Z,1552262400,2019,0,0,70.0,70.0,63.56,-22.015,998.2,7.13,-999.0,yes,yes,no,300234065716130,BD2GHI,AOML,BJARNI_SAEMUNDSSO,North
2019-03-11T01:00:28Z,1552266029,2019,1,0,70.042,70.042,63.557,-22.006,998.4,7.14,-999.0,yes,yes,no,300234065716130,BD2GHI,AOML,BJARNI_SAEMUNDSSO,North
2019-03-11T01:59:31Z,1552269571,2019,2,0,70.083,70.083,63.556,-22.002,997.7,7.12,-999.0,yes,yes,no,300234065716130,BD2GHI,AOML,BJARNI_SAEMUNDSSO,North
2019-03-11T03:00:00Z,1552273200,2019,3,0,70.125,70.125,63.555,-21.998,997.6,7.1,-999.0,yes,yes,no,300234065716130,BD2GHI,AOML,BJARNI_SAEMUNDSSO,North
2019-03-11T04:03:21Z,1552277002,2019,4,4,70.169,70.169,63.561,-22.007,996.4,7.09,-999.0,yes,yes,no,300234065716130,BD2GHI,AOML,BJARNI_SAEMUNDSSO,North
2019-03-11T04:59:31Z,1552280371,2019,5,0,70.208,70.208,63.551,-22.015,995.3,7.13,-999.0,yes,yes,no,300234065716130,BD2GHI,AOML,BJARNI_SAEMUNDSSO,North
2019-03-11T06:00:00Z,1552284000,2019,6,0,70.25,70.25,63.555,-22.028,995.1,7.13,-999.0,yes,yes,no,300234065716130,BD2GHI,AOML,BJARNI_SAEMUNDSSO,North
2019-03-11T07:00:28Z,1552287629,2019,7,0,70.292,70.292,63.559,-22.043,993.9,7.14,-999.0,yes,yes,no,300234065716130,BD2GHI,AOML,BJARNI_SAEMUNDSSO,North
2019-03-11T07:59:31Z,1552291171,2019,8,0,70.333,70.333,63.558,-22.049,993.3,7.14,-999.0,yes,yes,no,300234065716130,BD2GHI,AOML,BJARNI_SAEMUNDSSO,North
2019-03-11T09:00:00Z,1552294800,2019,9,0,70.375,70.375,63.561,-22.068,991.9,7.15,-999.0,yes,yes,no,300234065716130,BD2GHI,AOML,BJARNI_SAEMUNDSSO,North
2019-03-11T10:00:28Z,1552298429,2019,10,0,70.417,70.417,63.563,-22.074,991.2,7.15,-999.0,yes,yes,no,300234065716130,BD2GHI,AOML,BJARNI_SAEMUNDSSO,North
2019-03-11T11:03:50Z,1552302230,2019,11,4,70.461,70.461,-90.0,-180.0,989.6,7.16,-999.0,yes,yes,no,300234065716130,BD2GHI,AOML,BJARNI_SAEMUNDSSO,North
2019-03-11T12:00:00Z,1552305600,2019,12,0,70.5,70.5,63.473,-22.012,987.6,7.15,-999.0,yes,yes,no,300234065716130,BD2GHI,AOML,BJARNI_SAEMUNDSSO,North
2019-03-11T13:00:28Z,1552309229,2019,13,0,70.542,70.542,63.561,-22.084,985.0,7.17,-999.0,yes,yes,no,300234065716130,BD2GHI,AOML,BJARNI_SAEMUNDSSO,North
2019-03-11T13:59:31Z,1552312771,2019,14,0,70.583,70.583,63.559,-22.086,983.0,7.19,-999.0,yes,yes,no,300234065716130,BD2GHI,AOML,BJARNI_SAEMUNDSSO,North
2019-03-11T15:00:00Z,1552316400,2019,15,0,70.625,70.625,63.559,-22.094,979.9,7.2,-999.0,yes,yes,no,300234065716130,BD2GHI,AOML,BJARNI_SAEMUNDSSO,North
2019-03-11T16:00:28Z,1552320029,2019,16,0,70.667,70.667,63.559,-22.107,977.6,7.22,-999.0,yes,yes,no,300234065716130,BD2GHI,AOML,BJARNI_SAEMUNDSSO,North
2019-03-11T17:00:57Z,1552323658,2019,17,1,70.709,70.709,63.565,-22.134,975.1,7.25,-999.0,yes,yes,no,300234065716130,BD2GHI,AOML,BJARNI_SAEMUNDSSO,North
2019-03-11T18:04:19Z,1552327459,2019,18,4,70.753,70.753,63.56,-22.151,973.2,7.25,-999.0,yes,yes,no,300234065716130,BD2GHI,AOML,BJARNI_SAEMUNDSSO,North
2019-03-11T19:03:21Z,1552331002,2019,19,3,70.794,70.794,63.563,-22.187,972.1,7.25,-999.0,yes,yes,no,300234065716130,BD2GHI,AOML,BJARNI_SAEMUNDSSO,North
2019-03-11T19:59:31Z,1552334371,2019,20,0,70.833,70.833,63.564,-22.21,971.4,7.26,-999.0,yes,yes,no,300234065716130,BD2GHI,AOML,BJARNI_SAEMUNDSSO,North
2019-03-11T21:00:00Z,1552338000,2019,21,0,70.875,70.875,63.563,-22.236,970.9,7.25,-999.0,yes,yes,no,300234065716130,BD2GHI,AOML,BJARNI_SAEMUNDSSO,North
2019-03-11T22:00:28Z,1552341629,2019,22,0,70.917,70.917,63.56,-22.265,970.4,7.25,-999.0,yes,yes,no,300234065716130,BD2GHI,AOML,BJARNI_SAEMUNDSSO,North
2019-03-11T22:59:31Z,1552345171,2019,23,0,70.958,70.958,63.556,-22.292,970.2,7.24,-999.0,yes,yes,no,300234065716130,BD2GHI,AOML,BJARNI_SAEMUNDSSO,North
2019-03-12T00:00:00Z,1552348800,2019,0,0,71.0,71.0,63.553,-22.308,971.0,7.25,-999.0,yes,yes,no,300234065716130,BD2GHI,AOML,BJARNI_SAEMUNDSSO,North
2019-03-12T01:00:28Z,1552352429,2019,1,0,71.042,71.042,63.548,-22.318,971.6,7.25,-999.0,yes,yes,no,300234065716130,BD2GHI,AOML,BJARNI_SAEMUNDSSO,North
2019-03-12T01:59:31Z,1552355971,2019,2,0,71.083,71.083,63.544,-22.331,972.3,7.25,-999.0,yes,yes,no,300234065716130,BD2GHI,AOML,BJARNI_SAEMUNDSSO,North
2019-03-12T03:01:26Z,1552359686,2019,3,2,71.126,71.126,63.536,-22.343,974.0,7.26,-999.0,yes,yes,no,300234065716130,BD2GHI,AOML,BJARNI_SAEMUNDSSO,North
2019-03-12T04:00:28Z,1552363229,2019,4,0,71.167,71.167,63.531,-22.352,974.4,7.25,-999.0,yes,yes,no,300234065716130,BD2GHI,AOML,BJARNI_SAEMUNDSSO,North
2019-03-12T04:59:31Z,1552366771,2019,5,0,71.208,71.208,63.528,-22.36,975.2,7.26,-999.0,yes,yes,no,300234065716130,BD2GHI,AOML,BJARNI_SAEMUNDSSO,North
2019-03-12T06:01:26Z,1552370486,2019,6,1,71.251,71.251,63.525,-22.373,977.2,7.26,-999.0,yes,yes,no,300234065716130,BD2GHI,AOML,BJARNI_SAEMUNDSSO,North
2019-03-12T07:00:28Z,1552374029,2019,7,0,71.292,71.292,63.522,-22.384,978.5,7.26,-999.0,yes,yes,no,300234065716130,BD2GHI,AOML,BJARNI_SAEMUNDSSO,North
2019-03-12T08:03:50Z,1552377830,2019,8,4,71.336,71.336,63.51,-22.385,979.8,7.26,-999.0,yes,yes,no,300234065716130,BD2GHI,AOML,BJARNI_SAEMUNDSSO,North
2019-03-12T09:00:00Z,1552381200,2019,9,0,71.375,71.375,63.508,-22.407,981.3,7.26,-999.0,yes,yes,no,300234065716130,BD2GHI,AOML,BJARNI_SAEMUNDSSO,North
2019-03-12T10:03:21Z,1552385002,2019,10,3,71.419,71.419,63.506,-22.413,983.1,7.26,-999.0,yes,yes,no,300234065716130,BD2GHI,AOML,BJARNI_SAEMUNDSSO,North
2019-03-12T10:59:31Z,1552388371,2019,11,0,71.458,71.458,63.5,-22.418,984.5,7.26,-999.0,yes,yes,no,300234065716130,BD2GHI,AOML,BJARNI_SAEMUNDSSO,North
2019-03-12T12:00:00Z,1552392000,2019,12,0,71.5,71.5,63.497,-22.417,985.6,7.26,-999.0,yes,yes,no,300234065716130,BD2GHI,AOML,BJARNI_SAEMUNDSSO,North
2019-03-12T13:00:28Z,1552395629,2019,13,0,71.542,71.542,63.489,-22.413,986.8,7.27,-999.0,yes,yes,no,300234065716130,BD2GHI,AOML,BJARNI_SAEMUNDSSO,North
2019-03-12T13:59:31Z,1552399171,2019,14,0,71.583,71.583,63.482,-22.406,988.3,7.26,-999.0,yes,yes,no,300234065716130,BD2GHI,AOML,BJARNI_SAEMUNDSSO,North
2019-03-12T15:00:00Z,1552402800,2019,15,0,71.625,71.625,63.475,-22.397,989.3,7.25,-999.0,yes,yes,no,300234065716130,BD2GHI,AOML,BJARNI_SAEMUNDSSO,North
2019-03-12T16:00:28Z,1552406429,2019,16,0,71.667,71.667,63.469,-22.39,990.2,7.26,-999.0,yes,yes,no,300234065716130,BD2GHI,AOML,BJARNI_SAEMUNDSSO,North
2019-03-12T17:03:50Z,1552410230,2019,17,4,71.711,71.711,63.468,-22.388,991.9,7.25,-999.0,yes,yes,no,300234065716130,BD2GHI,AOML,BJARNI_SAEMUNDSSO,North
2019-03-12T18:04:19Z,1552413859,2019,18,4,71.753,71.753,63.459,-22.376,993.2,7.25,-999.0,yes,yes,no,300234065716130,BD2GHI,AOML,BJARNI_SAEMUNDSSO,North
2019-03-12T19:03:21Z,1552417402,2019,19,3,71.794,71.794,63.457,-22.383,994.5,7.23,-999.0,yes,yes,no,300234065716130,BD2GHI,AOML,BJARNI_SAEMUNDSSO,North
2019-03-12T19:59:31Z,1552420771,2019,20,0,71.833,71.833,63.456,-22.384,995.8,7.24,-999.0,yes,yes,no,300234065716130,BD2GHI,AOML,BJARNI_SAEMUNDSSO,North
2019-03-12T21:00:00Z,1552424400,2019,21,0,71.875,71.875,63.454,-22.387,996.7,7.24,-999.0,yes,yes,no,300234065716130,BD2GHI,AOML,BJARNI_SAEMUNDSSO,North
2019-03-12T22:00:28Z,1552428029,2019,22,0,71.917,71.917,63.454,-22.389,997.2,7.25,-999.0,yes,yes,no,300234065716130,BD2GHI,AOML,BJARNI_SAEMUNDSSO,North
2019-03-12T22:59:31Z,1552431571,2019,23,0,71.958,71.958,63.451,-22.391,997.7,7.23,-999.0,yes,yes,no,300234065716130,BD2GHI,AOML,BJARNI_SAEMUNDSSO,North
2019-03-13T00:00:00Z,1552435200,2019,0,0,72.0,72.0,63.447,-22.389,998.5,7.23,-999.0,yes,yes,no,300234065716130,BD2GHI,AOML,BJARNI_SAEMUNDSSO,North
2019-03-13T01:00:28Z,1552438829,2019,1,0,72.042,72.042,63.442,-22.384,998.7,7.23,-999.0,yes,yes,no,300234065716130,BD2GHI,AOML,BJARNI_SAEMUNDSSO,North
2019-03-13T01:59:31Z,1552442371,2019,2,0,72.083,72.083,63.441,-22.382,998.6,7.23,-999.0,yes,yes,no,300234065716130,BD2GHI,AOML,BJARNI_SAEMUNDSSO,North
2019-03-13T03:01:26Z,1552446086,2019,3,2,72.126,72.126,63.438,-22.373,998.0,7.22,-999.0,yes,yes,no,300234065716130,BD2GHI,AOML,BJARNI_SAEMUNDSSO,North
2019-03-13T04:00:28Z,1552449629,2019,4,0,72.167,72.167,63.438,-22.368,997.1,7.21,-999.0,yes,yes,no,300234065716130,BD2GHI,AOML,BJARNI_SAEMUNDSSO,North
2019-03-13T04:59:31Z,1552453171,2019,5,0,72.208,72.208,63.438,-22.366,996.5,7.22,-999.0,yes,yes,no,300234065716130,BD2GHI,AOML,BJARNI_SAEMUNDSSO,North
2019-03-13T06:00:00Z,1552456800,2019,6,0,72.25,72.25,63.441,-22.363,995.4,7.23,-999.0,yes,yes,no,300234065716130,BD2GHI,AOML,BJARNI_SAEMUNDSSO,North
2019-03-13T07:00:28Z,1552460429,2019,7,0,72.292,72.292,63.445,-22.366,994.3,7.17,-999.0,yes,yes,no,300234065716130,BD2GHI,AOML,BJARNI_SAEMUNDSSO,North
2019-03-13T07:59:31Z,1552463971,2019,8,0,72.333,72.333,63.448,-22.371,993.1,7.21,-999.0,yes,yes,no,300234065716130,BD2GHI,AOML,BJARNI_SAEMUNDSSO,North
2019-03-13T09:00:00Z,1552467600,2019,9,0,72.375,72.375,63.452,-22.373,991.5,7.21,-999.0,yes,yes,no,300234065716130,BD2GHI,AOML,BJARNI_SAEMUNDSSO,North
2019-03-13T10:00:28Z,1552471229,2019,10,0,72.417,72.417,63.457,-22.375,989.4,7.2,-999.0,yes,yes,no,300234065716130,BD2GHI,AOML,BJARNI_SAEMUNDSSO,North
2019-03-13T11:00:57Z,1552474858,2019,11,1,72.459,72.459,63.461,-22.378,987.1,7.2,-999.0,yes,yes,no,300234065716130,BD2GHI,AOML,BJARNI_SAEMUNDSSO,North
2019-03-13T12:00:00Z,1552478400,2019,12,0,72.5,72.5,63.465,-22.381,984.9,7.2,-999.0,yes,yes,no,300234065716130,BD2GHI,AOML,BJARNI_SAEMUNDSSO,North
2019-03-13T13:00:28Z,1552482029,2019,13,0,72.542,72.542,63.468,-22.386,982.8,7.21,-999.0,yes,yes,no,300234065716130,BD2GHI,AOML,BJARNI_SAEMUNDSSO,North
2019-03-13T13:59:31Z,1552485571,2019,14,0,72.583,72.583,63.471,-22.385,982.0,7.21,-999.0,yes,yes,no,300234065716130,BD2GHI,AOML,BJARNI_SAEMUNDSSO,North
2019-03-13T15:00:00Z,1552489200,2019,15,0,72.625,72.625,63.474,-22.383,981.0,7.22,-999.0,yes,yes,no,300234065716130,BD2GHI,AOML,BJARNI_SAEMUNDSSO,North
2019-03-13T16:00:28Z,1552492829,2019,16,0,72.667,72.667,63.475,-22.377,980.5,7.22,-999.0,yes,yes,no,300234065716130,BD2GHI,AOML,BJARNI_SAEMUNDSSO,North
2019-03-13T16:59:31Z,1552496371,2019,17,0,72.708,72.708,63.476,-22.37,980.0,7.22,-999.0,yes,yes,no,300234065716130,BD2GHI,AOML,BJARNI_SAEMUNDSSO,North
2019-03-13T18:00:00Z,1552500000,2019,18,0,72.75,72.75,63.477,-22.363,980.0,7.2,-999.0,yes,yes,no,300234065716130,BD2GHI,AOML,BJARNI_SAEMUNDSSO,North
2019-03-13T19:00:28Z,1552503629,2019,19,0,72.792,72.792,63.477,-22.357,979.7,7.21,-999.0,yes,yes,no,300234065716130,BD2GHI,AOML,BJARNI_SAEMUNDSSO,North
2019-03-13T19:59:31Z,1552507171,2019,20,0,72.833,72.833,63.478,-22.354,979.7,7.2,-999.0,yes,yes,no,300234065716130,BD2GHI,AOML,BJARNI_SAEMUNDSSO,North
2019-03-13T21:00:00Z,1552510800,2019,21,0,72.875,72.875,63.477,-22.349,979.5,7.15,-999.0,yes,yes,no,300234065716130,BD2GHI,AOML,BJARNI_SAEMUNDSSO,North
2019-03-13T22:00:28Z,1552514429,2019,22,0,72.917,72.917,63.478,-22.349,979.7,7.17,-999.0,yes,yes,no,300234065716130,BD2GHI,AOML,BJARNI_SAEMUNDSSO,North
2019-03-13T22:59:31Z,1552517971,2019,23,0,72.958,72.958,63.478,-22.35,979.8,7.15,-999.0,yes,yes,no,300234065716130,BD2GHI,AOML,BJARNI_SAEMUNDSSO,North
2019-03-14T01:00:28Z,1552525229,2019,1,0,73.042,73.042,63.479,-22.345,980.7,7.17,-999.0,yes,yes,no,300234065716130,BD2GHI,AOML,BJARNI_SAEMUNDSSO,North
2019-03-14T01:59:31Z,1552528771,2019,2,0,73.083,73.083,63.48,-22.342,981.2,7.14,-999.0,yes,yes,no,300234065716130,BD2GHI,AOML,BJARNI_SAEMUNDSSO,North
2019-03-14T03:00:00Z,1552532400,2019,3,0,73.125,73.125,63.479,-22.334,981.9,7.13,-999.0,yes,yes,no,300234065716130,BD2GHI,AOML,BJARNI_SAEMUNDSSO,North
2019-03-14T04:00:28Z,1552536029,2019,4,0,73.167,73.167,63.479,-22.325,982.5,7.15,-999.0,yes,yes,no,300234065716130,BD2GHI,AOML,BJARNI_SAEMUNDSSO,North
2019-03-14T04:59:31Z,1552539571,2019,5,0,73.208,73.208,63.485,-22.313,983.0,7.16,-999.0,yes,yes,no,300234065716130,BD2GHI,AOML,BJARNI_SAEMUNDSSO,North
2019-03-14T06:00:00Z,1552543200,2019,6,0,73.25,73.25,63.486,-22.311,983.5,7.17,-999.0,yes,yes,no,300234065716130,BD2GHI,AOML,BJARNI_SAEMUNDSSO,North
2019-03-14T07:00:28Z,1552546829,2019,7,0,73.292,73.292,63.491,-22.313,984.3,7.16,-999.0,yes,yes,no,300234065716130,BD2GHI,AOML,BJARNI_SAEMUNDSSO,North
2019-03-14T07:59:31Z,1552550371,2019,8,0,73.333,73.333,63.495,-22.318,984.7,7.16,-999.0,yes,yes,no,300234065716130,BD2GHI,AOML,BJARNI_SAEMUNDSSO,North
2019-03-14T09:00:00Z,1552554000,2019,9,0,73.375,73.375,63.5,-22.322,985.5,7.16,-999.0,yes,yes,no,300234065716130,BD2GHI,AOML,BJARNI_SAEMUNDSSO,North
2019-03-14T10:00:28Z,1552557629,2019,10,0,73.417,73.417,63.503,-22.327,985.6,7.18,-999.0,yes,yes,no,300234065716130,BD2GHI,AOML,BJARNI_SAEMUNDSSO,North
2019-03-14T10:59:31Z,1552561171,2019,11,0,73.458,73.458,63.511,-22.335,985.8,7.18,-999.0,yes,yes,no,300234065716130,BD2GHI,AOML,BJARNI_SAEMUNDSSO,North
2019-03-14T12:00:00Z,1552564800,2019,12,0,73.5,73.5,63.51,-22.343,985.8,7.19,-999.0,yes,yes,no,300234065716130,BD2GHI,AOML,BJARNI_SAEMUNDSSO,North
2019-03-14T13:00:28Z,1552568429,2019,13,0,73.542,73.542,63.512,-22.351,985.8,7.21,-999.0,yes,yes,no,300234065716130,BD2GHI,AOML,BJARNI_SAEMUNDSSO,North
2019-03-14T13:59:31Z,1552571971,2019,14,0,73.583,73.583,63.514,-22.352,985.9,7.2,-999.0,yes,yes,no,300234065716130,BD2GHI,AOML,BJARNI_SAEMUNDSSO,North
2019-03-14T15:01:26Z,1552575686,2019,15,1,73.626,73.626,63.517,-22.353,985.2,7.2,-999.0,yes,yes,no,300234065716130,BD2GHI,AOML,BJARNI_SAEMUNDSSO,North
2019-03-14T16:00:28Z,1552579229,2019,16,0,73.667,73.667,63.515,-22.355,984.6,7.21,-999.0,yes,yes,no,300234065716130,BD2GHI,AOML,BJARNI_SAEMUNDSSO,North
2019-03-14T16:59:31Z,1552582771,2019,17,0,73.708,73.708,63.514,-22.356,984.6,7.21,-999.0,yes,yes,no,300234065716130,BD2GHI,AOML,BJARNI_SAEMUNDSSO,North
2019-03-14T18:00:00Z,1552586400,2019,18,0,73.75,73.75,63.515,-22.356,984.7,7.2,-999.0,yes,yes,no,300234065716130,BD2GHI,AOML,BJARNI_SAEMUNDSSO,North
2019-03-14T19:00:28Z,1552590029,2019,19,0,73.792,73.792,63.515,-22.358,984.6,7.16,-999.0,yes,yes,no,300234065716130,BD2GHI,AOML,BJARNI_SAEMUNDSSO,North
2019-03-14T20:00:57Z,1552593658,2019,20,1,73.834,73.834,63.517,-22.361,984.7,7.17,-999.0,yes,yes,no,300234065716130,BD2GHI,AOML,BJARNI_SAEMUNDSSO,North